W2PJ Weather Reports


Display with metric or nautical units.
time (UTC)temp
F
wind
direction
speed
MPH
gust
MPH
rain 1hr
in
rain 24hr
in
rain mn
in
humidity
%
barometer
mb
20260901194634 74 86 0.0 0.0 0.00 0.10 0.09 90 1015.0
20260901194013 74 85 0.0 0.0 0.00 0.10 0.09 90 1015.0
20260901193528 74 89 0.0 0.0 0.00 0.10 0.09 90 1015.0
20260901193056 74 95 0.0 0.0 0.00 0.10 0.09 90 1015.0
20260901192617 74 28 0.0 0.0 0.00 0.10 0.09 91 1015.0
20260901192002 74 67 0.0 0.0 0.00 0.10 0.09 90 1014.9
20260901191600 74 102 0.0 0.0 0.00 0.10 0.09 91 1015.0
20260901191051 74 74 0.0 0.0 0.00 0.10 0.09 90 1015.0
20260901190609 74 65 0.0 0.0 0.00 0.10 0.09 90 1014.9
20260901190037 74 39 0.0 0.0 0.00 0.10 0.09 91 1015.0
20260901185605 74 20 0.0 0.0 0.00 0.10 0.09 91 1015.0
20260901185115 74 359 0.0 0.0 0.00 0.10 0.09 91 1014.9
20260901184541 74 5 0.0 0.0 0.00 0.10 0.09 90 1014.9
20260901184059 74 45 0.0 0.0 0.00 0.10 0.09 90 1014.9
20260901183616 74 38 0.0 0.0 0.00 0.10 0.09 91 1014.9
20260901183143 74 20 0.0 0.0 0.00 0.10 0.09 90 1014.9
20260901182507 74 55 0.0 0.0 0.00 0.10 0.09 91 1014.8
20260901182024 74 4 0.0 0.0 0.00 0.10 0.09 90 1014.8
20260901181614 74 53 0.0 1.0 0.00 0.10 0.09 91 1014.7
20260901181113 74 22 0.0 1.0 0.00 0.10 0.09 90 1014.6
20260901180636 74 86 0.0 0.0 0.00 0.10 0.09 90 1014.4
20260901180029 74 45 0.0 0.0 0.00 0.10 0.09 91 1014.4
20260901175553 74 70 0.0 0.0 0.00 0.10 0.09 91 1014.4
20260901175109 74 33 0.0 0.0 0.00 0.10 0.09 91 1014.4
20260901174634 74 43 0.0 0.0 0.00 0.10 0.09 91 1014.4
20260901174016 74 46 0.0 0.0 0.00 0.10 0.09 91 1014.4
20260901173534 74 69 0.0 0.0 0.00 0.10 0.09 91 1014.4
20260901173052 74 29 0.0 0.0 0.00 0.10 0.09 91 1014.4
20260901172606 74 31 0.0 0.0 0.00 0.10 0.09 91 1014.3
20260901172120 74 95 0.0 0.0 0.00 0.10 0.09 91 1014.3
20260901171538 74 86 0.0 0.0 0.00 0.10 0.09 90 1014.3
20260901171051 74 42 0.0 0.0 0.00 0.10 0.09 90 1014.3
20260901170613 74 41 0.0 0.0 0.00 0.10 0.09 89 1014.3
20260901170145 75 63 0.0 0.0 0.00 0.10 0.09 88 1014.3
20260901165507 76 284 0.0 0.0 0.00 0.10 0.09 86 1014.3
20260901165020 76 271 0.0 0.0 0.00 0.10 0.09 87 1014.3
20260901164617 75 276 0.0 0.0 0.00 0.10 0.09 86 1014.3
20260901164121 76 274 0.0 0.0 0.00 0.10 0.09 86 1014.3
20260901163505 75 174 0.0 0.0 0.00 0.10 0.09 87 1014.3
20260901163048 75 183 0.0 0.0 0.00 0.10 0.09 87 1014.3
20260901162609 75 247 0.0 0.0 0.00 0.10 0.09 88 1014.3
20260901162126 75 258 0.0 0.0 0.00 0.10 0.09 87 1014.3
20260901161543 75 181 0.0 0.0 0.00 0.10 0.09 89 1014.4
20260901161101 75 255 0.0 0.0 0.00 0.10 0.09 90 1014.4
20260901160618 74 249 0.0 0.0 0.00 0.10 0.09 90 1014.4
20260901160141 74 134 0.0 0.0 0.00 0.10 0.09 91 1014.3
20260901155509 73 204 0.0 0.0 0.00 0.12 0.09 90 1014.3
20260901155025 73 111 0.0 0.0 0.00 0.12 0.09 90 1014.3
20260901154544 73 122 0.0 0.0 0.00 0.12 0.09 90 1014.3
20260901154105 73 131 0.0 0.0 0.00 0.12 0.09 91 1014.3
20260901153619 73 156 0.0 0.0 0.00 0.12 0.09 91 1014.3
20260901153143 72 145 0.0 0.0 0.00 0.12 0.09 91 1014.4
20260901152514 72 145 0.0 0.0 0.00 0.12 0.09 91 1014.3
20260901152031 72 110 0.0 0.0 0.00 0.12 0.09 91 1014.3
20260901151548 72 154 0.0 0.0 0.00 0.12 0.09 91 1014.4
20260901151105 72 117 0.0 0.0 0.00 0.12 0.09 92 1014.4
20260901150624 71 220 0.0 1.0 0.00 0.12 0.09 92 1014.4
20260901150042 71 134 0.0 1.0 0.00 0.12 0.09 92 1014.4
20260901145601 71 154 0.0 0.0 0.00 0.12 0.09 92 1014.6
20260901145123 70 147 0.0 0.0 0.00 0.12 0.09 91 1014.6
20260901144541 70 130 0.0 0.0 0.00 0.12 0.09 91 1014.6
20260901144053 70 116 0.0 0.0 0.00 0.12 0.09 92 1014.6
20260901143609 70 136 0.0 0.0 0.00 0.12 0.09 92 1014.6
20260901143002 70 116 0.0 0.0 0.00 0.12 0.09 92 1014.7
20260901142522 69 197 0.0 0.0 0.00 0.12 0.09 91 1014.6
20260901142039 69 142 0.0 0.0 0.01 0.12 0.09 91 1014.5
20260901141555 69 169 0.0 0.0 0.01 0.12 0.09 91 1014.5
20260901141109 69 165 0.0 0.0 0.01 0.12 0.09 91 1014.6
20260901140626 69 192 0.0 0.0 0.01 0.12 0.09 91 1014.6
20260901140148 69 157 0.0 0.0 0.01 0.12 0.09 91 1014.5
20260901135513 69 135 0.0 0.0 0.01 0.12 0.09 91 1014.5
20260901135032 69 137 0.0 0.0 0.01 0.12 0.09 91 1014.4
20260901134549 69 127 0.0 0.0 0.01 0.12 0.09 91 1014.4
20260901134107 69 137 0.0 0.0 0.01 0.12 0.09 91 1014.5
20260901133628 69 168 0.0 0.0 0.01 0.12 0.09 92 1014.4
20260901133148 69 165 0.0 1.0 0.01 0.12 0.09 92 1014.4
20260901132505 69 121 0.0 0.0 0.00 0.11 0.08 92 1014.5
20260901132026 68 147 0.0 0.0 0.00 0.11 0.08 91 1014.5
20260901131541 68 159 0.0 0.0 0.00 0.11 0.08 91 1014.5
20260901131101 67 149 0.0 0.0 0.00 0.11 0.08 90 1014.7
20260901130619 67 131 0.0 0.0 0.00 0.11 0.08 90 1014.8
20260901130007 67 152 0.0 0.0 0.00 0.11 0.08 89 1014.7
20260901125526 67 171 0.0 0.0 0.00 0.11 0.08 89 1014.7
20260901125044 67 122 0.0 0.0 0.00 0.11 0.08 89 1014.6
20260901124601 67 250 0.0 0.0 0.00 0.11 0.08 89 1014.8
20260901124113 66 182 0.0 0.0 0.00 0.11 0.08 89 1014.8
20260901123633 66 118 0.0 0.0 0.00 0.11 0.08 89 1014.8
20260901123041 66 137 0.0 0.0 0.00 0.11 0.08 89 1014.8
20260901122605 66 131 0.0 0.0 0.00 0.11 0.08 89 1014.9
20260901122120 66 165 0.0 0.0 0.00 0.11 0.08 89 1015.0
20260901121642 66 155 0.0 0.0 0.00 0.11 0.08 89 1015.2
20260901121002 66 145 0.0 0.0 0.00 0.11 0.08 89 1015.1
20260901120521 66 116 0.0 1.0 0.00 0.11 0.08 89 1015.1
20260901120049 66 148 0.0 1.0 0.00 0.11 0.08 89 1015.1
20260901115609 66 125 0.0 0.0 0.00 0.11 0.08 89 1015.0
20260901115121 65 103 0.0 0.0 0.00 0.11 0.08 89 1015.2
20260901114537 65 99 0.0 0.0 0.00 0.11 0.08 89 1015.3
20260901114055 65 162 0.0 0.0 0.00 0.11 0.08 89 1015.3
20260901113615 65 126 0.0 0.0 0.00 0.11 0.08 89 1015.3
20260901113142 65 245 0.0 0.0 0.00 0.11 0.08 89 1015.4
20260901112512 65 159 0.0 0.0 0.00 0.11 0.08 89 1015.3
20260901112029 65 221 0.0 0.0 0.00 0.11 0.08 89 1015.2
20260901111545 65 147 0.0 0.0 0.00 0.11 0.08 89 1015.1
20260901111101 65 147 0.0 0.0 0.00 0.11 0.08 89 1015.1
20260901110616 65 125 0.0 0.0 0.00 0.11 0.08 89 1015.1
20260901110035 65 139 0.0 0.0 0.00 0.11 0.08 89 1015.1
20260901105557 65 117 0.0 0.0 0.00 0.11 0.08 89 1015.0
20260901105114 65 145 0.0 0.0 0.01 0.11 0.08 89 1015.1
20260901104532 65 130 0.0 0.0 0.04 0.11 0.08 89 1014.9
20260901104052 65 178 0.0 0.0 0.04 0.11 0.08 89 1015.0
20260901103614 65 144 0.0 0.0 0.04 0.11 0.08 89 1014.8
20260901103139 65 145 0.0 0.0 0.04 0.11 0.08 89 1014.9
20260901102634 65 103 0.0 0.0 0.04 0.11 0.08 89 1014.9
20260901102021 65 130 0.0 0.0 0.04 0.11 0.08 89 1015.2
20260901101554 65 131 0.0 0.0 0.04 0.11 0.08 89 1015.0
20260901101051 66 143 0.0 0.0 0.04 0.11 0.08 89 1015.0
20260901100609 66 151 0.0 0.0 0.04 0.11 0.08 89 1015.4
20260901100135 66 124 0.0 0.0 0.04 0.11 0.08 89 1015.4
20260901095512 66 137 0.0 0.0 0.04 0.11 0.08 89 1015.4
20260901095034 66 195 0.0 0.0 0.02 0.09 0.06 89 1015.8
20260901094552 66 200 0.0 0.0 0.00 0.07 0.04 89 1015.7
20260901094058 66 138 0.0 0.0 0.00 0.07 0.04 89 1015.5
20260901093617 66 138 0.0 0.0 0.00 0.07 0.04 89 1015.2
20260901093027 66 151 0.0 0.0 0.00 0.07 0.04 89 1015.2
20260901092547 66 158 0.0 0.0 0.00 0.07 0.04 89 1015.2
20260901092109 66 159 0.0 0.0 0.00 0.07 0.04 89 1015.1
20260901091631 66 134 0.0 0.0 0.00 0.07 0.04 89 1015.1
20260901091002 66 153 0.0 0.0 0.00 0.07 0.04 89 1015.0
20260901090520 66 144 0.0 0.0 0.00 0.07 0.04 89 1015.0
20260901090046 65 111 0.0 0.0 0.00 0.07 0.04 89 1015.0
20260901085608 65 133 0.0 0.0 0.00 0.07 0.04 89 1015.0
20260901085126 65 147 0.0 0.0 0.01 0.07 0.04 89 1015.0
20260901084542 65 112 0.0 0.0 0.01 0.07 0.04 89 1015.0
20260901084053 65 158 0.0 0.0 0.01 0.07 0.04 89 1015.2
20260901083615 65 150 0.0 0.0 0.01 0.07 0.04 89 1015.2
20260901083005 65 144 0.0 0.0 0.01 0.07 0.04 89 1015.2
20260901082522 65 149 0.0 0.0 0.01 0.07 0.04 89 1015.2
20260901082043 65 159 0.0 0.0 0.02 0.07 0.04 89 1015.4
20260901081558 65 159 0.0 0.0 0.02 0.07 0.04 89 1015.4
20260901081109 65 122 0.0 0.0 0.03 0.07 0.04 89 1015.2
20260901080622 65 152 0.0 0.0 0.03 0.07 0.04 89 1015.3
20260901080027 65 143 0.0 0.0 0.03 0.07 0.04 89 1015.4
20260901075529 65 200 0.0 0.0 0.03 0.07 0.04 89 1015.4
20260901075115 65 147 0.0 0.0 0.02 0.06 0.03 89 1015.4
20260901074518 65 141 0.0 0.0 0.02 0.06 0.03 89 1015.6
20260901074032 65 141 0.0 0.0 0.02 0.06 0.03 89 1015.7
20260901073551 65 162 0.0 0.0 0.02 0.06 0.03 89 1015.7
20260901073113 65 155 0.0 0.0 0.02 0.06 0.03 89 1015.7
20260901072631 65 151 0.0 0.0 0.02 0.06 0.03 89 1015.8
20260901072015 65 168 0.0 0.0 0.01 0.05 0.02 89 1015.7
20260901071543 65 144 0.0 0.0 0.01 0.05 0.02 89 1015.8
20260901071104 65 126 0.0 0.0 0.00 0.04 0.01 89 1015.7
20260901070619 65 126 0.0 0.0 0.00 0.04 0.01 89 1015.7
20260901070053 65 151 0.0 0.0 0.00 0.04 0.01 89 1015.8
20260901065605 65 129 0.0 0.0 0.00 0.04 0.01 89 1015.9
20260901065119 65 129 0.0 0.0 0.00 0.04 0.01 89 1016.0
20260901064507 65 129 0.0 0.0 0.00 0.04 0.01 89 1016.0
20260901064019 65 129 0.0 0.0 0.01 0.04 0.01 89 1016.1
20260901063538 65 129 0.0 0.0 0.01 0.04 0.01 89 1016.1
20260901063100 65 129 0.0 0.0 0.01 0.04 0.01 89 1016.1
20260901062612 65 129 0.0 0.0 0.01 0.04 0.01 89 1016.2
20260901062132 65 129 0.0 0.0 0.01 0.04 0.01 89 1016.1
20260901061652 65 129 0.0 0.0 0.01 0.04 0.01 89 1016.2
20260901061039 65 129 0.0 0.0 0.01 0.04 0.01 89 1016.4
20260901060553 65 143 0.0 0.0 0.01 0.04 0.01 89 1016.3
20260901060116 65 224 0.0 0.0 0.01 0.04 0.01 89 1016.3
20260901055506 65 136 0.0 0.0 0.01 0.04 0.01 89 1016.3
20260901055027 65 136 0.0 0.0 0.01 0.04 0.01 89 1016.5
20260901054549 65 145 0.0 0.0 0.01 0.04 0.01 89 1016.6
20260901054058 65 143 0.0 0.0 0.00 0.03 0.00 89 1016.6
20260901053617 65 147 0.0 0.0 0.00 0.03 0.00 89 1016.6
20260901053140 65 113 0.0 0.0 0.00 0.03 0.00 89 1016.6
20260901052632 65 95 0.0 0.0 0.00 0.03 0.00 89 1016.7
20260901052023 65 147 0.0 0.0 0.00 0.03 0.00 89 1016.6
20260901051533 64 145 0.0 0.0 0.00 0.03 0.00 89 1016.7
20260901051053 64 135 0.0 0.0 0.00 0.03 0.00 89 1016.6
20260901050615 65 139 0.0 0.0 0.00 0.03 0.00 89 1016.6
20260901050141 65 139 0.0 0.0 0.00 0.03 0.00 90 1016.6
20260901045507 65 136 0.0 0.0 0.00 0.03 0.00 91 1016.8
20260901045022 66 136 0.0 0.0 0.00 0.03 0.00 91 1016.9
20260901044545 66 136 0.0 0.0 0.00 0.03 0.00 91 1016.9
20260901044051 66 134 0.0 0.0 0.00 0.03 0.00 91 1017.1
20260901043610 66 139 0.0 0.0 0.00 0.03 0.00 91 1017.1
20260901043045 66 136 0.0 0.0 0.00 0.03 0.00 91 1017.1
20260901042604 66 129 0.0 0.0 0.01 0.03 0.00 91 1017.1
20260901042120 66 133 0.0 0.0 0.01 0.03 0.00 91 1017.0
20260901041648 66 147 0.0 0.0 0.01 0.03 0.00 91 1017.1
20260901041017 66 154 0.0 0.0 0.01 0.03 0.00 91 1017.2
20260901040533 66 155 0.0 0.0 0.01 0.03 0.00 91 1017.1
20260901040100 66 203 0.0 0.0 0.01 0.03 0.00 91 1017.1
20260901035634 66 167 0.0 0.0 0.01 0.03 0.03 91 1017.1
20260901035019 66 223 0.0 0.0 0.01 0.03 0.03 91 1017.0
20260901034541 66 155 0.0 0.0 0.01 0.03 0.03 91 1016.9
20260901034057 66 159 0.0 0.0 0.01 0.03 0.03 91 1017.0
20260901033615 66 135 0.0 0.0 0.01 0.03 0.03 91 1017.1
20260901033040 66 107 0.0 0.0 0.01 0.03 0.03 91 1017.2
20260901032600 66 120 0.0 0.0 0.00 0.02 0.02 91 1017.2
20260901032122 66 127 0.0 0.0 0.00 0.02 0.02 91 1017.1
20260901031510 65 157 0.0 0.0 0.00 0.02 0.02 91 1017.1
20260901031031 65 152 0.0 0.0 0.00 0.02 0.02 91 1017.2
20260901030547 65 141 0.0 0.0 0.00 0.02 0.02 91 1017.2
20260901030109 65 164 0.0 0.0 0.00 0.02 0.02 91 1017.2
20260901025630 65 133 0.0 0.0 0.00 0.02 0.02 91 1017.0
20260901025022 65 138 0.0 0.0 0.00 0.02 0.02 91 1017.2
20260901024547 65 109 0.0 0.0 0.00 0.02 0.02 91 1017.2
20260901024057 65 109 0.0 0.0 0.00 0.02 0.02 91 1017.2
20260901023617 65 147 0.0 0.0 0.00 0.02 0.02 91 1017.3
20260901023005 65 137 0.0 0.0 0.00 0.02 0.02 91 1017.3
20260901022526 65 138 0.0 0.0 0.00 0.02 0.02 91 1017.3
20260901022040 65 131 0.0 0.0 0.00 0.02 0.02 91 1017.2
20260901021606 65 134 0.0 0.0 0.00 0.02 0.02 91 1017.3
20260901021110 65 145 0.0 0.0 0.00 0.02 0.02 91 1017.5
20260901020626 65 145 0.0 0.0 0.00 0.02 0.02 91 1017.5
20260901020143 65 126 0.0 0.0 0.00 0.02 0.02 91 1017.7
20260901015508 65 125 0.0 0.0 0.00 0.02 0.02 91 1017.7
20260901015019 65 124 0.0 0.0 0.00 0.02 0.02 91 1017.7
20260901014540 65 124 0.0 0.0 0.00 0.02 0.02 91 1017.8
20260901014057 65 138 0.0 0.0 0.00 0.02 0.02 92 1017.7
20260901013615 65 105 0.0 0.0 0.00 0.02 0.02 92 1017.8
20260901013139 65 111 0.0 0.0 0.00 0.02 0.02 92 1017.7
20260901012518 65 164 0.0 0.0 0.00 0.02 0.02 92 1017.6
20260901012031 65 138 0.0 0.0 0.00 0.02 0.02 92 1017.8
20260901011556 65 152 0.0 0.0 0.00 0.02 0.02 92 1017.7
20260901011114 65 154 0.0 0.0 0.00 0.02 0.02 92 1017.7
20260901010502 65 145 0.0 0.0 0.00 0.02 0.02 92 1017.7
20260901010051 65 148 0.0 0.0 0.00 0.02 0.02 92 1017.6
20260901005614 65 94 0.0 0.0 0.00 0.02 0.02 92 1017.6
20260901005130 65 85 0.0 0.0 0.00 0.02 0.02 92 1017.5
20260901004541 65 126 0.0 0.0 0.00 0.02 0.02 92 1017.6
20260901004102 65 139 0.0 0.0 0.00 0.02 0.02 92 1017.6
20260901003617 65 176 0.0 0.0 0.00 0.02 0.02 92 1017.5
20260901003142 65 122 0.0 0.0 0.00 0.02 0.02 92 1017.3
20260901002513 65 151 0.0 0.0 0.00 0.02 0.02 92 1017.3
20260901002030 65 117 0.0 0.0 0.00 0.02 0.02 92 1017.3
20260901001604 65 172 0.0 0.0 0.00 0.02 0.02 92 1017.3
20260901001113 65 155 0.0 0.0 0.00 0.02 0.02 92 1017.3
20260901000636 65 140 0.0 0.0 0.00 0.02 0.02 92 1017.3
20260901000155 65 137 0.0 0.0 0.00 0.02 0.02 92 1017.3
20260831235513 65 148 0.0 0.0 0.00 0.02 0.02 92 1017.3
20260831235030 65 126 0.0 0.0 0.00 0.02 0.02 92 1017.3
20260831234557 66 159 0.0 0.0 0.00 0.02 0.02 92 1017.4
20260831234116 66 90 0.0 0.0 0.00 0.02 0.02 92 1017.5
20260831233634 66 144 0.0 0.0 0.00 0.02 0.02 92 1017.5
20260831233006 66 261 0.0 0.0 0.00 0.02 0.02 92 1017.5
20260831232523 66 147 0.0 0.0 0.00 0.02 0.02 92 1017.4
20260831232043 66 145 0.0 0.0 0.00 0.02 0.02 92 1017.3
20260831231632 66 244 0.0 0.0 0.00 0.02 0.02 92 1017.4
20260831231003 66 117 0.0 0.0 0.00 0.02 0.02 92 1017.5
20260831230522 66 145 0.0 0.0 0.00 0.02 0.02 92 1017.5
20260831230039 66 154 0.0 0.0 0.00 0.02 0.02 92 1017.6
20260831225551 66 148 0.0 0.0 0.00 0.02 0.02 92 1017.6
20260831225111 66 122 0.0 0.0 0.00 0.02 0.02 92 1017.6
20260831224644 66 136 0.0 0.0 0.00 0.02 0.02 92 1017.7
20260831224015 66 121 0.0 0.0 0.00 0.02 0.02 92 1017.7
20260831223534 66 126 0.0 0.0 0.00 0.02 0.02 92 1017.6
20260831223041 66 136 0.0 0.0 0.00 0.02 0.02 92 1017.6
20260831222557 66 156 0.0 7.0 0.00 0.02 0.02 92 1017.7
20260831222116 66 222 0.0 7.0 0.00 0.02 0.02 92 1017.7
20260831221644 66 167 0.0 0.0 0.00 0.02 0.02 92 1017.7
20260831221015 66 145 0.0 0.0 0.00 0.02 0.02 92 1017.6
20260831220533 66 129 0.0 0.0 0.00 0.02 0.02 92 1017.7
20260831220054 66 130 0.0 0.0 0.00 0.02 0.02 92 1017.8
20260831215607 66 141 0.0 0.0 0.00 0.02 0.02 92 1017.9
20260831215122 66 122 0.0 0.0 0.00 0.02 0.02 92 1018.0
20260831214548 66 98 0.0 0.0 0.00 0.02 0.02 92 1018.2
20260831214104 66 137 0.0 0.0 0.00 0.02 0.02 92 1018.2
20260831213626 66 96 0.0 0.0 0.00 0.02 0.02 92 1018.3
20260831213017 66 116 0.0 0.0 0.00 0.02 0.02 92 1018.3
20260831212531 65 162 0.0 0.0 0.00 0.02 0.02 92 1018.4
20260831212051 65 144 0.0 0.0 0.00 0.02 0.02 92 1018.3
20260831211609 65 178 0.0 0.0 0.00 0.02 0.02 92 1018.4
20260831211116 65 154 0.0 0.0 0.00 0.02 0.02 92 1018.4
20260831210632 65 155 0.0 0.0 0.00 0.02 0.02 92 1018.5
20260831210153 65 137 0.0 0.0 0.00 0.02 0.02 92 1018.6
20260831205513 65 92 0.0 2.0 0.00 0.02 0.02 91 1018.6
20260831205034 66 115 0.0 0.0 0.00 0.02 0.02 91 1018.7
20260831204546 66 137 0.0 2.0 0.00 0.02 0.02 91 1018.8
20260831204059 66 165 0.0 2.0 0.00 0.02 0.02 91 1018.8
20260831203619 66 160 0.0 1.0 0.00 0.02 0.02 91 1018.7
20260831203044 66 166 0.0 1.0 0.00 0.02 0.02 91 1018.7
20260831202553 66 122 0.0 1.0 0.00 0.02 0.02 90 1018.8
20260831202111 66 280 0.0 0.0 0.00 0.02 0.02 90 1018.7
20260831201510 66 123 0.0 1.0 0.00 0.02 0.02 90 1018.6
20260831201029 66 148 0.0 4.0 0.00 0.02 0.02 90 1018.7
20260831200550 66 131 0.0 4.0 0.00 0.02 0.02 90 1018.6
20260831200109 66 202 0.0 0.0 0.00 0.02 0.02 90 1018.6
20260831195629 66 136 0.0 1.0 0.00 0.02 0.02 90 1018.6